[[{"header":{"parameterUnit":"m.s-1","parameterCategory":1,"la1":30.2991,"la2":30.254,"lo1":-89.0895,"lo2":-89.0444,"dy":0.0017,"dx":0.0017,"nx":28,"ny":28,"refTime":"2024-07-06T09:00:00:Z","depth":0,"parameterNumber":2,"parameterNumberName":"U-component_of_WINDS"},"data":[0,0,0,0,0,0,0,0,0,0,0,0,0,0,0,0,0,0,0,0,0,0,0,0,0,0,0,0,0,0,0,0,0,0,0,0,0,0,0,0,0,0,0,0,0,0,0,0,0,0,0,0,0,0,0,0,0,0,-0.7113,-0.7113,0,-0.7099,-0.7099,-0.7099,-0.7091,-0.7091,-0.7091,-0.7091,-0.7076,-0.7076,-0.7075,0,0,0,0,0,0,0,0,0,0,0,0,0,-0.713,-0.713,-0.7113,-0.7113,-0.7112,-0.7099,-0.7099,-0.7099,-0.7091,-0.7091,-0.7091,-0.7091,-0.7076,-0.7076,-0.7075,0,0,0,0,0,0,0,0,0,0,0,0,0,-0.712,-0.713,-0.7113,-0.7107,-0.7106,-0.7099,-0.7099,-0.7099,-0.7091,-0.7091,-0.7091,-0.7091,-0.7076,-0.7076,-0.7075,-0.7072,0,0,-0.7073,-0.7073,0,0,0,0,0,0,0,0,-0.7121,-0.712,-0.7108,-0.7107,-0.7107,-0.7097,-0.71,-0.709,-0.7091,-0.7097,-0.7091,-0.7091,-0.7083,-0.7082,-0.7079,-0.7071,-0.7071,-0.7073,-0.7073,-0.7073,-0.7072,0,0,0,0,0,0,0,-0.7121,-0.712,-0.7107,-0.7108,-0.7107,-0.7105,-0.7103,-0.7098,-0.709,-0.7097,-0.7096,-0.7095,-0.7082,-0.708,-0.7079,-0.707,-0.7073,-0.7073,-0.7072,-0.7072,-0.7059,-0.7059,0,0,0,0,0,0,-0.7123,-0.7121,-0.7108,-0.7107,-0.7114,-0.7104,-0.7103,-0.71,-0.709,-0.7089,-0.7095,-0.7094,-0.7081,-0.7079,-0.7078,-0.7074,-0.7073,-0.7072,-0.7072,-0.7059,-0.7059,-0.7059,0,0,0,0,0,0,-0.7124,-0.7122,-0.7108,-0.7114,-0.7112,-0.7104,-0.7101,-0.71,-0.7097,-0.7089,-0.7087,-0.7093,-0.7081,-0.7079,-0.7074,-0.7073,-0.7072,-0.7071,-0.7059,-0.7059,-0.7059,-0.7065,0,0,0,0,0,0,-0.7124,-0.7122,-0.7122,-0.7114,-0.7111,-0.7105,-0.7101,-0.71,-0.7096,-0.7096,-0.7087,-0.7086,-0.7081,-0.7075,-0.7073,-0.7072,-0.7071,-0.7059,-0.7059,-0.7059,-0.7065,-0.7065,-0.7066,0,0,0,0,0,-0.7125,-0.7124,-0.7122,-0.712,-0.711,-0.7105,-0.7103,-0.7098,-0.7096,-0.7095,-0.709,-0.7086,-0.7074,-0.7074,-0.7072,-0.7071,-0.7059,-0.7059,-0.7059,-0.7065,-0.7065,-0.7066,0,0,0,0,0,0,-0.7131,-0.7122,-0.712,-0.7116,-0.7111,-0.7103,-0.7102,-0.7098,-0.7093,-0.7093,-0.7086,-0.7084,-0.7079,-0.7075,-0.7075,-0.7068,-0.7066,-0.7065,-0.7071,-0.7071,-0.7072,-0.7073,-0.707,0,0,0,0,0,-0.7132,-0.7129,-0.7121,-0.7118,-0.7116,-0.7109,-0.7107,-0.7103,-0.7097,-0.7095,-0.7089,-0.7083,-0.7078,-0.7074,-0.7069,-0.7064,-0.7062,-0.7063,-0.7063,-0.7064,-0.7063,-0.706,-0.706,-0.7059,-0.7059,-0.7059,0,0,-0.7134,-0.7129,-0.7127,-0.712,-0.7115,-0.7111,-0.7108,-0.7104,-0.71,-0.7094,-0.7089,-0.7084,-0.7077,-0.7072,-0.7069,-0.7068,-0.7063,-0.7064,-0.7064,-0.7063,-0.706,-0.706,-0.7061,-0.7059,-0.7059,-0.7059,0,0,-0.7135,-0.7131,-0.7129,-0.7124,-0.7118,-0.7114,-0.7113,-0.7105,-0.7102,-0.7097,-0.7092,-0.7088,-0.7079,-0.7074,-0.707,-0.707,-0.7066,-0.7068,-0.707,-0.7067,-0.7067,-0.7067,-0.7067,-0.7067,-0.7068,-0.7068,-0.7068,0,-0.7138,-0.7133,-0.7128,-0.7124,-0.7121,-0.7115,-0.7112,-0.7108,-0.71,-0.7097,-0.7096,-0.7085,-0.708,-0.7073,-0.7073,-0.707,-0.7069,-0.7069,-0.7068,-0.7068,-0.7068,-0.7067,-0.7067,-0.7068,-0.7068,-0.7068,-0.7068,0,-0.7137,-0.7133,-0.7131,-0.7124,-0.7121,-0.7117,-0.7111,-0.7108,-0.7105,-0.71,-0.7094,-0.7088,-0.7081,-0.7079,-0.7076,-0.7072,-0.7072,-0.7069,-0.7067,-0.7068,-0.7068,-0.7067,-0.7069,-0.7068,-0.7068,-0.7068,0,0,-0.7142,-0.7132,-0.7131,-0.7128,-0.7121,-0.7117,-0.7113,-0.7107,-0.7105,-0.7099,-0.7095,-0.7088,-0.7086,-0.7081,-0.7077,-0.7074,-0.7074,-0.7072,-0.7072,-0.7073,-0.707,-0.7072,-0.7071,-0.7072,-0.7072,-0.7071,-0.707,0,-0.7142,-0.7135,-0.713,-0.7126,-0.7122,-0.7116,-0.7113,-0.7108,-0.7103,-0.7099,-0.7094,-0.7088,-0.7086,-0.7083,-0.7081,-0.7075,-0.7073,-0.7075,-0.7067,-0.7067,-0.7069,-0.7071,-0.7073,-0.7072,-0.707,-0.707,-0.707,0,-0.7141,-0.7137,-0.7132,-0.7124,-0.7122,-0.712,-0.7113,-0.711,-0.7103,-0.71,-0.7095,-0.7091,-0.7086,-0.7084,-0.7077,-0.7078,-0.7075,-0.7071,-0.7071,-0.707,-0.7069,-0.707,-0.7072,-0.7072,-0.7069,-0.7069,-0.707,0,-0.7145,-0.7138,-0.7133,-0.7131,-0.7122,-0.712,-0.7117,-0.711,-0.7107,-0.7101,-0.7099,-0.7093,-0.7089,-0.7084,-0.7078,-0.7077,-0.7071,-0.7069,-0.7068,-0.7068,-0.7067,-0.7067,-0.7068,-0.7065,-0.7065,-0.7065,-0.7065,0,-0.7146,-0.7143,-0.7135,-0.7133,-0.7129,-0.7123,-0.7119,-0.7115,-0.711,-0.7106,-0.71,-0.7097,-0.7089,-0.7084,-0.7079,-0.7073,-0.7072,-0.7069,-0.7067,-0.7069,-0.707,-0.7067,-0.7067,-0.7065,-0.7065,-0.7065,-0.7065,0,-0.715,-0.7144,-0.714,-0.7132,-0.713,-0.7128,-0.7121,-0.7118,-0.7113,-0.7108,-0.7107,-0.7099,-0.7093,-0.7087,-0.7078,-0.7075,-0.707,-0.7068,-0.7072,-0.7071,-0.7071,-0.7071,-0.707,-0.7069,-0.7067,-0.7067,-0.7067,0,-0.715,-0.7148,-0.714,-0.7138,-0.7134,-0.713,-0.7127,-0.7121,-0.7117,-0.711,-0.7107,-0.7101,-0.7096,-0.7086,-0.708,-0.7073,-0.7071,-0.7071,-0.707,-0.7072,-0.7071,-0.7071,-0.7071,-0.7072,-0.7072,-0.7072,-0.7072,0,-0.7152,-0.715,-0.7145,-0.714,-0.7136,-0.7132,-0.7127,-0.7125,-0.7118,-0.7114,-0.7108,-0.7104,-0.7096,-0.7089,-0.7082,-0.7077,-0.7073,-0.7072,-0.7072,-0.7073,-0.7076,-0.7074,-0.7073,-0.7072,-0.7072,-0.7072,-0.7072,-0.7072,-0.7154,-0.7152,-0.7146,-0.7142,-0.7137,-0.7133,-0.713,-0.7125,-0.712,-0.7113,-0.711,-0.7104,-0.7097,-0.7087,-0.7082,-0.7077,-0.7076,-0.7075,-0.7075,-0.7075,-0.7075,-0.7077,-0.7076,-0.7076,-0.7076,-0.7076,-0.7076,0,-0.7156,-0.7152,-0.7148,-0.7141,-0.7137,-0.7135,-0.7129,-0.7126,-0.7121,-0.7115,-0.711,-0.7103,-0.7097,-0.709,-0.7083,-0.708,-0.7078,-0.7079,-0.7079,-0.7078,-0.7077,-0.7078,-0.708,-0.708,-0.708,-0.708,-0.708,-0.708,-0.7156,-0.7152,-0.7149,-0.7142,-0.7138,-0.7133,-0.713,-0.7126,-0.7121,-0.7114,-0.7109,-0.7105,-0.7098,-0.7091,-0.7085,-0.7083,-0.708,-0.7081,-0.7079,-0.7078,-0.7078,-0.7077,-0.7078,-0.7081,-0.7081,-0.708,-0.708,-0.708]},{"header":{"parameterUnit":"m.s-1","parameterCategory":1,"la1":30.2991,"la2":30.254,"lo1":-89.0895,"lo2":-89.0444,"dy":0.0017,"dx":0.0017,"nx":28,"ny":28,"refTime":"2024-07-06T09:00:00:Z","depth":0,"parameterNumber":3,"parameterNumberName":"V-component_of_WINDS"},"data":[0,0,0,0,0,0,0,0,0,0,0,0,0,0,0,0,0,0,0,0,0,0,0,0,0,0,0,0,0,0,0,0,0,0,0,0,0,0,0,0,0,0,0,0,0,0,0,0,0,0,0,0,0,0,0,0,0,0,0.2258,0.2258,0,0.2244,0.2244,0.2244,0.2268,0.2268,0.2269,0.227,0.2255,0.2253,0.2252,0,0,0,0,0,0,0,0,0,0,0,0,0,0.2304,0.2303,0.2258,0.2258,0.2258,0.2244,0.2244,0.2244,0.2267,0.2268,0.2269,0.227,0.2255,0.2254,0.2252,0,0,0,0,0,0,0,0,0,0,0,0,0,0.2287,0.2303,0.2258,0.2268,0.2269,0.2244,0.2244,0.2244,0.2267,0.2268,0.227,0.2271,0.2255,0.2254,0.2252,0.2217,0,0,0.2247,0.2246,0,0,0,0,0,0,0,0,0.2288,0.2285,0.2267,0.2267,0.2268,0.2259,0.2255,0.2235,0.2267,0.2268,0.227,0.2271,0.2255,0.2253,0.2248,0.2216,0.2216,0.2246,0.2245,0.2245,0.2244,0,0,0,0,0,0,0,0.2289,0.2286,0.2253,0.2266,0.2267,0.2273,0.2272,0.2251,0.2255,0.2268,0.2269,0.2267,0.2256,0.225,0.2248,0.2216,0.2247,0.2245,0.2244,0.2243,0.2156,0.2154,0,0,0,0,0,0,0.2289,0.2287,0.2253,0.2252,0.2281,0.2271,0.227,0.2261,0.2255,0.2255,0.2266,0.2269,0.2252,0.225,0.2247,0.2207,0.2245,0.2243,0.2242,0.2157,0.2155,0.2154,0,0,0,0,0,0,0.229,0.2286,0.2254,0.227,0.2266,0.2269,0.2258,0.226,0.2254,0.2254,0.2255,0.226,0.2253,0.225,0.2225,0.2206,0.2242,0.2241,0.2158,0.2156,0.2155,0.2124,0,0,0,0,0,0,0.2291,0.2286,0.2273,0.2269,0.2265,0.2231,0.2257,0.2258,0.2251,0.2254,0.2248,0.2248,0.2254,0.2227,0.2223,0.2205,0.2239,0.216,0.2158,0.2155,0.2127,0.2122,0.2117,0,0,0,0,0,0.2293,0.2264,0.2272,0.2268,0.2249,0.223,0.2228,0.2235,0.2249,0.2236,0.2236,0.2248,0.2209,0.2224,0.222,0.2201,0.2161,0.2158,0.2155,0.2129,0.2123,0.2117,0,0,0,0,0,0,0.2264,0.2264,0.2272,0.2242,0.2236,0.2234,0.2217,0.2227,0.2217,0.2219,0.2229,0.2227,0.22,0.2198,0.2215,0.2167,0.2188,0.2184,0.2169,0.2163,0.2158,0.2159,0.2238,0,0,0,0,0,0.2255,0.224,0.224,0.2213,0.221,0.2214,0.2206,0.2213,0.2206,0.2204,0.2202,0.2196,0.2182,0.2173,0.216,0.2127,0.2127,0.2112,0.2107,0.2103,0.2099,0.2082,0.2076,0.2144,0.2144,0.2145,0,0,0.2234,0.2232,0.2222,0.2208,0.2204,0.2188,0.2212,0.2194,0.2182,0.2201,0.2177,0.2176,0.2169,0.214,0.2128,0.2138,0.208,0.2099,0.2096,0.2094,0.2079,0.2072,0.2066,0.2143,0.2143,0.2143,0,0,0.2189,0.2186,0.2164,0.216,0.2154,0.2157,0.2152,0.2149,0.2149,0.2125,0.2139,0.2126,0.2102,0.2096,0.2091,0.2045,0.2056,0.2041,0.2014,0.1998,0.1992,0.1988,0.1971,0.1966,0.2037,0.2037,0.2037,0,0.2164,0.2141,0.2151,0.2132,0.2126,0.2143,0.212,0.2116,0.2106,0.2101,0.2113,0.2084,0.208,0.2051,0.204,0.2035,0.2029,0.2041,0.1993,0.1988,0.1984,0.1968,0.1962,0.2035,0.2036,0.2036,0.2036,0,0.2111,0.2095,0.2078,0.2069,0.206,0.204,0.2046,0.2036,0.2044,0.2046,0.2022,0.2019,0.2006,0.2,0.2007,0.1972,0.1978,0.1991,0.2012,0.1975,0.1961,0.1955,0.2033,0.2034,0.2034,0.2035,0,0,0.2046,0.2044,0.2037,0.2034,0.2029,0.2017,0.1997,0.1986,0.1977,0.197,0.1954,0.1934,0.1947,0.194,0.1947,0.1932,0.1897,0.1947,0.1947,0.1938,0.1858,0.1848,0.1841,0.1904,0.1903,0.1902,0.1859,0,0.2001,0.1968,0.1977,0.1944,0.1929,0.1946,0.193,0.1925,0.1927,0.1915,0.1917,0.1902,0.192,0.1916,0.1903,0.1904,0.1881,0.1907,0.1889,0.1888,0.189,0.1833,0.1822,0.1781,0.1853,0.1852,0.1851,0,0.1943,0.1935,0.1901,0.19,0.1894,0.1879,0.187,0.1858,0.1853,0.1856,0.1849,0.1859,0.184,0.1862,0.1836,0.1854,0.1847,0.1847,0.1845,0.1843,0.1867,0.1829,0.1768,0.1762,0.1843,0.1843,0.1844,0,0.1899,0.188,0.1857,0.1853,0.1851,0.184,0.1839,0.1836,0.1829,0.182,0.1816,0.1805,0.1799,0.1791,0.1798,0.1813,0.1771,0.1793,0.1772,0.1772,0.1762,0.1762,0.1698,0.1758,0.1758,0.1759,0.1759,0,0.1848,0.1826,0.1837,0.1823,0.1799,0.181,0.1786,0.1787,0.1784,0.1771,0.1785,0.1772,0.1782,0.1769,0.1775,0.1753,0.175,0.1751,0.1753,0.1749,0.1749,0.1745,0.1747,0.1757,0.1757,0.1758,0.1758,0,0.1793,0.18,0.1776,0.1777,0.1777,0.176,0.176,0.1747,0.1751,0.1733,0.173,0.1735,0.1722,0.1728,0.1714,0.1717,0.1689,0.1694,0.169,0.1692,0.167,0.1672,0.16,0.1592,0.1658,0.1657,0.1657,0,0.176,0.1743,0.1743,0.1735,0.1733,0.172,0.1714,0.1724,0.1716,0.1711,0.1698,0.1686,0.1677,0.1655,0.1657,0.1646,0.1651,0.1627,0.165,0.1647,0.1651,0.1651,0.165,0.1622,0.1621,0.1621,0.162,0,0.1699,0.1703,0.1693,0.1684,0.1676,0.1669,0.1664,0.1657,0.1667,0.1657,0.1644,0.1637,0.1623,0.1611,0.1602,0.1601,0.1612,0.1613,0.1608,0.1604,0.1602,0.1603,0.1677,0.1615,0.1615,0.1616,0.1616,0.1616,0.1654,0.164,0.1638,0.1627,0.1624,0.1619,0.1607,0.161,0.1599,0.1589,0.1596,0.158,0.1577,0.1566,0.1564,0.1552,0.1561,0.1553,0.1551,0.1549,0.1546,0.1605,0.155,0.155,0.155,0.1551,0.1551,0,0.1593,0.1593,0.1583,0.1575,0.1566,0.1579,0.1574,0.1566,0.1552,0.1549,0.154,0.1525,0.1514,0.1516,0.1505,0.1495,0.1501,0.1492,0.1493,0.1492,0.1538,0.1544,0.1489,0.1489,0.1489,0.1489,0.1489,0.1489,0.1561,0.1539,0.1544,0.1522,0.1522,0.1507,0.1503,0.1499,0.1496,0.1479,0.147,0.1472,0.1471,0.1461,0.1451,0.1452,0.1448,0.1438,0.144,0.1483,0.1489,0.1495,0.15,0.1437,0.1437,0.1396,0.1395,0.1395]}]]